Date,TemperatureHighF,TemperatureAvgF,TemperatureLowF,DewpointHighF,DewpointAvgF,DewpointLowF,HumidityHigh,HumidityAvg,HumidityLow,PressureMaxIn,PressureMinIn,WindSpeedMaxMPH,WindSpeedAvgMPH,GustSpeedMaxMPH,PrecipitationSumIn
2013-3-1,35.9,30.5,26.9,-99.9,-99.9,-99.9,0,0,100,0.00,40.00,3,1,13,0.02
2013-3-2,35.1,29.7,21.5,-99.9,-99.9,-99.9,0,0,100,0.00,40.00,3,1,12,0.02
2013-3-3,31.1,23.0,16.6,-99.9,-99.9,-99.9,0,0,100,0.00,40.00,4,3,18,0.01
2013-3-4,43.7,31.5,18.9,-99.9,-99.9,-99.9,0,0,100,0.00,40.00,6,2,25,0.00
2013-3-5,43.4,39.4,33.6,-99.9,-99.9,-99.9,0,0,100,0.00,40.00,5,1,17,1.04
2013-3-6,32.0,26.5,21.7,-99.9,-99.9,-99.9,0,0,100,0.00,40.00,7,4,25,0.02
2013-3-7,39.0,29.2,22.8,-99.9,-99.9,-99.9,0,0,100,0.00,40.00,3,2,16,0.02
2013-3-8,42.5,32.1,23.0,-99.9,-99.9,-99.9,0,0,100,0.00,40.00,6,2,13,0.00
2013-3-9,52.4,42.0,33.4,-99.9,-99.9,-99.9,0,0,100,0.00,40.00,3,1,12,0.00
2013-3-10,56.5,46.2,37.8,-99.9,-99.9,-99.9,0,0,100,0.00,40.00,3,2,11,0.00
2013-3-11,47.2,43.9,41.5,-99.9,-99.9,-99.9,0,0,100,0.00,40.00,6,4,19,0.58
2013-3-12,50.1,44.3,34.4,-99.9,-99.9,-99.9,0,0,100,0.00,40.00,5,2,15,0.67
2013-3-13,37.7,32.2,24.5,-99.9,-99.9,-99.9,0,0,100,0.00,40.00,5,3,19,0.01
2013-3-14,41.4,29.3,19.4,-99.9,-99.9,-99.9,0,0,100,0.00,40.00,4,2,20,0.00
2013-3-15,58.6,43.0,28.4,-99.9,-99.9,-99.9,0,0,100,0.00,40.00,4,2,19,0.00
2013-3-16,67.4,56.6,47.1,-99.9,-99.9,-99.9,0,0,100,0.00,40.00,5,3,20,0.03
2013-3-17,63.5,53.5,40.1,-99.9,-99.9,-99.9,0,0,100,0.00,40.00,6,2,14,0.00
2013-3-18,43.2,37.4,33.2,-99.9,-99.9,-99.9,0,0,100,0.00,40.00,2,1,7,0.64
2013-3-19,50.6,43.1,34.0,-99.9,-99.9,-99.9,0,0,100,0.00,40.00,4,2,17,0.03
2013-3-20,48.1,36.5,28.3,-99.9,-99.9,-99.9,0,0,100,0.00,40.00,3,2,16,0.00
2013-3-21,32.1,25.3,17.5,-99.9,-99.9,-99.9,0,0,100,0.00,40.00,6,3,18,0.03
2013-3-22,41.9,31.6,20.0,-99.9,-99.9,-99.9,0,0,100,0.00,40.00,3,1,10,0.00
2013-3-23,48.3,40.4,34.5,-99.9,-99.9,-99.9,0,0,100,0.00,40.00,2,0,8,0.00
2013-3-24,40.4,35.5,32.1,-99.9,-99.9,-99.9,0,0,100,0.00,40.00,4,2,16,0.78
2013-3-25,32.2,28.2,24.3,-99.9,-99.9,-99.9,0,0,100,0.00,40.00,5,2,24,0.09
2013-3-26,35.3,27.7,22.5,-99.9,-99.9,-99.9,0,0,100,0.00,40.00,5,3,21,0.13
2013-3-27,35.7,28.6,22.7,-99.9,-99.9,-99.9,0,0,100,0.00,40.00,3,2,14,0.09
2013-3-28,42.9,32.0,23.0,-99.9,-99.9,-99.9,0,0,100,0.00,40.00,3,1,13,0.00
2013-3-29,50.7,37.4,29.0,-99.9,-99.9,-99.9,0,0,100,0.00,40.00,3,1,14,0.00
2013-3-30,55.5,43.9,34.3,-99.9,-99.9,-99.9,0,0,100,0.00,40.00,3,1,10,0.00
2013-3-31,56.5,47.9,42.6,-99.9,-99.9,-99.9,0,0,100,0.00,40.00,4,1,14,0.58